When you browse on this site, cookies collect data to enhance your experience and personalize the content and advertising you see.
Visit our Privacy Policy to learn more. By continuing to use the site, you agree to this use of cookies and data.
  • In Romania
  • List of Countries
  • For 7 days
  • Water Temperature
  • Satellite Maps
  • Weather Map
  • Weather Widgets
  • user-avatar
    Login

    Hourly Weather Novaya Teplovka

    Today, 22 April, Monday

    Time Temperature Precipitation Wind Pressure Humidity
    00:00 +10°C° 0 mm 1 mps 753 mmHg 44%
    01:00 +10°C° 0 mm 1 mps 753 mmHg 46%
    02:00 +10°C° 0 mm 1 mps 753 mmHg 48%
    03:00 +9°C° 0 mm 1 mps 753 mmHg 49%
    04:00 +9°C° 0 mm 1 mps 753 mmHg 51%
    05:00 +9°C° 0 mm 1 mps 753 mmHg 53%
    06:00 +9°C° 0 mm 1 mps 753 mmHg 55%
    07:00 +10°C° 0 mm 2 mps 754 mmHg 50%
    08:00 +13°C° 0 mm 2 mps 754 mmHg 45%
    09:00 +14°C° 0 mm 2 mps 754 mmHg 40%
    10:00 +14°C° 0 mm 3 mps 754 mmHg 39%
    11:00 +14°C° 0 mm 3 mps 754 mmHg 37%
    12:00 +16°C° 0 mm 3 mps 754 mmHg 36%
    13:00 +16°C° 0 mm 3 mps 754 mmHg 37%
    14:00 +16°C° 0 mm 3 mps 753 mmHg 37%
    15:00 +17°C° 0 mm 3 mps 753 mmHg 37%
    16:00 +16°C° 0 mm 2 mps 752 mmHg 40%
    17:00 +16°C° 0 mm 2 mps 752 mmHg 42%
    18:00 +15°C° 0 mm 2 mps 752 mmHg 45%
    19:00 +15°C° 0 mm 2 mps 752 mmHg 46%
    20:00 +14°C° 0 mm 2 mps 753 mmHg 47%
    21:00 +13°C° 0 mm 2 mps 753 mmHg 49%
    22:00 +13°C° 0 mm 1 mps 753 mmHg 50%
    23:00 +13°C° 0 mm 1 mps 753 mmHg 50%

    Tomorrow, 23 April, Tuesday

    Time Temperature Precipitation Wind Pressure Humidity
    00:00 +12°C° 0 mm 1 mps 753 mmHg 51%
    01:00 +12°C° 0 mm 2 mps 753 mmHg 53%
    02:00 +12°C° 0 mm 2 mps 753 mmHg 54%
    03:00 +12°C° 0 mm 2 mps 753 mmHg 55%
    04:00 +10°C° 0 mm 2 mps 753 mmHg 57%
    05:00 +10°C° 0 mm 2 mps 753 mmHg 58%
    06:00 +10°C° 0 mm 2 mps 753 mmHg 60%
    07:00 +12°C° 0 mm 3 mps 753 mmHg 53%
    08:00 +13°C° 0 mm 4 mps 753 mmHg 46%
    09:00 +15°C° 0 mm 4 mps 753 mmHg 40%
    10:00 +15°C° 0 mm 4 mps 753 mmHg 38%
    11:00 +16°C° 0 mm 5 mps 753 mmHg 37%
    12:00 +17°C° 0 mm 5 mps 753 mmHg 35%
    13:00 +17°C° 0 mm 5 mps 753 mmHg 34%
    14:00 +17°C° 0 mm 5 mps 752 mmHg 33%
    15:00 +19°C° 0 mm 6 mps 752 mmHg 33%
    16:00 +17°C° 0 mm 5 mps 752 mmHg 37%
    17:00 +17°C° 0 mm 4 mps 751 mmHg 41%
    18:00 +17°C° 0 mm 3 mps 751 mmHg 45%
    19:00 +16°C° 0 mm 3 mps 751 mmHg 48%
    20:00 +14°C° 0 mm 3 mps 751 mmHg 51%
    21:00 +14°C° 0 mm 2 mps 751 mmHg 54%
    22:00 +12°C° 0 mm 3 mps 751 mmHg 57%
    23:00 +12°C° 0 mm 3 mps 751 mmHg 60%

    Day after tomorrow, 24 April, Wednesday

    Time Temperature Precipitation Wind Pressure Humidity
    00:00 +11°C° 0 mm 3 mps 751 mmHg 62%
    01:00 +10°C° 0 mm 3 mps 751 mmHg 67%
    02:00 +9°C° 0 mm 3 mps 751 mmHg 73%
    03:00 +9°C° 0 mm 3 mps 751 mmHg 78%
    04:00 +8°C° 0 mm 3 mps 751 mmHg 78%
    05:00 +8°C° 0 mm 3 mps 751 mmHg 79%
    06:00 +8°C° 0 mm 3 mps 752 mmHg 79%
    07:00 +10°C° 0 mm 4 mps 752 mmHg 70%
    08:00 +11°C° 0 mm 4 mps 752 mmHg 61%
    09:00 +13°C° 0 mm 5 mps 752 mmHg 53%
    10:00 +14°C° 0 mm 5 mps 752 mmHg 48%
    11:00 +15°C° 0 mm 5 mps 752 mmHg 43%
    12:00 +16°C° 0 mm 5 mps 752 mmHg 39%
    13:00 +16°C° 0 mm 5 mps 752 mmHg 39%
    14:00 +17°C° 0 mm 5 mps 752 mmHg 39%
    15:00 +19°C° 0 mm 4 mps 751 mmHg 39%
    16:00 +18°C° 0 mm 4 mps 751 mmHg 43%
    17:00 +18°C° 0 mm 3 mps 751 mmHg 46%
    18:00 +18°C° 0 mm 2 mps 751 mmHg 50%
    19:00 +17°C° 0 mm 2 mps 751 mmHg 55%
    20:00 +15°C° 0 mm 2 mps 751 mmHg 60%
    21:00 +14°C° 0 mm 2 mps 751 mmHg 65%
    22:00 +14°C° 0 mm 2 mps 751 mmHg 67%
    23:00 +13°C° 0 mm 2 mps 751 mmHg 69%

    25 April, Thursday

    Time Temperature Precipitation Wind Pressure Humidity
    00:00 +12°C° 0 mm 3 mps 751 mmHg 71%
    01:00 +12°C° 0 mm 2 mps 751 mmHg 71%
    02:00 +12°C° 0 mm 2 mps 751 mmHg 72%
    03:00 +10°C° 0 mm 2 mps 751 mmHg 72%
    04:00 +12°C° 0 mm 2 mps 751 mmHg 73%
    05:00 +12°C° 0 mm 2 mps 751 mmHg 73%
    06:00 +11°C° 0 mm 3 mps 751 mmHg 74%
    07:00 +13°C° 0 mm 3 mps 752 mmHg 67%
    08:00 +15°C° 0 mm 4 mps 752 mmHg 61%
    09:00 +17°C° 0 mm 5 mps 752 mmHg 54%
    10:00 +19°C° 0 mm 5 mps 752 mmHg 49%
    11:00 +20°C° 0 mm 5 mps 752 mmHg 44%
    12:00 +21°C° 0 mm 5 mps 752 mmHg 39%
    13:00 +21°C° 0 mm 5 mps 752 mmHg 37%
    14:00 +22°C° 0 mm 5 mps 751 mmHg 36%
    15:00 +22°C° 0 mm 5 mps 751 mmHg 34%
    16:00 +21°C° 0 mm 4 mps 751 mmHg 38%
    17:00 +21°C° 0 mm 3 mps 751 mmHg 41%
    18:00 +20°C° 0 mm 3 mps 751 mmHg 44%
    19:00 +18°C° 0 mm 2 mps 751 mmHg 47%
    20:00 +17°C° 0 mm 2 mps 752 mmHg 51%
    21:00 +15°C° 0 mm 1 mps 752 mmHg 54%
    22:00 +15°C° 0 mm 1 mps 752 mmHg 57%
    23:00 +14°C° 0 mm 1 mps 752 mmHg 59%

    26 April, Friday

    Time Temperature Precipitation Wind Pressure Humidity
    00:00 +14°C° 0 mm 1 mps 751 mmHg 61%
    01:00 +12°C° 0 mm 0 mps 752 mmHg 62%
    02:00 +12°C° 0 mm 0 mps 752 mmHg 64%
    03:00 +12°C° 0 mm 0 mps 752 mmHg 65%
    04:00 +12°C° 0 mm 0 mps 752 mmHg 66%
    05:00 +13°C° 0 mm 1 mps 751 mmHg 68%
    06:00 +13°C° 0 mm 1 mps 751 mmHg 69%
    07:00 +15°C° 0 mm 2 mps 751 mmHg 62%
    08:00 +17°C° 0 mm 2 mps 752 mmHg 56%
    09:00 +19°C° 0 mm 3 mps 752 mmHg 50%
    10:00 +20°C° 0 mm 3 mps 752 mmHg 45%
    11:00 +21°C° 0 mm 3 mps 752 mmHg 40%
    12:00 +22°C° 0 mm 3 mps 751 mmHg 36%
    13:00 +22°C° 0 mm 3 mps 751 mmHg 35%
    14:00 +22°C° 0 mm 3 mps 751 mmHg 35%
    15:00 +22°C° 0 mm 3 mps 751 mmHg 35%
    16:00 +21°C° 0 mm 3 mps 751 mmHg 39%
    17:00 +20°C° 0 mm 2 mps 751 mmHg 44%
    18:00 +20°C° 0 mm 2 mps 751 mmHg 49%
    19:00 +18°C° 0 mm 2 mps 751 mmHg 51%
    20:00 +17°C° 0 mm 2 mps 752 mmHg 54%
    21:00 +15°C° 0 mm 2 mps 752 mmHg 56%
    22:00 +15°C° 0 mm 1 mps 752 mmHg 59%
    23:00 +14°C° 0 mm 1 mps 752 mmHg 62%

    27 April, Saturday

    Time Temperature Precipitation Wind Pressure Humidity
    00:00 +14°C° 0 mm 1 mps 752 mmHg 65%
    01:00 +13°C° 0 mm 1 mps 752 mmHg 68%
    02:00 +13°C° 0 mm 1 mps 752 mmHg 72%
    03:00 +12°C° 0 mm 1 mps 752 mmHg 75%
    04:00 +12°C° 0 mm 1 mps 752 mmHg 76%
    05:00 +12°C° 0 mm 2 mps 752 mmHg 77%
    06:00 +12°C° 0 mm 2 mps 752 mmHg 78%
    07:00 +14°C° 0 mm 2 mps 752 mmHg 70%
    08:00 +16°C° 0 mm 2 mps 752 mmHg 61%
    09:00 +18°C° 0 mm 2 mps 752 mmHg 53%
    10:00 +19°C° 0 mm 2 mps 751 mmHg 48%
    11:00 +21°C° 0 mm 2 mps 751 mmHg 43%
    12:00 +23°C° 0 mm 2 mps 751 mmHg 37%
    13:00 +23°C° 0 mm 2 mps 750 mmHg 38%
    14:00 +23°C° 0 mm 2 mps 750 mmHg 39%
    15:00 +23°C° 0 mm 2 mps 749 mmHg 40%
    16:00 +21°C° 0 mm 2 mps 749 mmHg 42%
    17:00 +21°C° 0 mm 2 mps 749 mmHg 44%
    18:00 +20°C° 0 mm 2 mps 749 mmHg 46%
    19:00 +19°C° 0.2 mm 2 mps 749 mmHg 51%
    20:00 +18°C° 0.2 mm 2 mps 749 mmHg 56%
    21:00 +17°C° 0.2 mm 2 mps 749 mmHg 61%
    22:00 +16°C° 1 mm 2 mps 749 mmHg 69%
    23:00 +15°C° 1 mm 2 mps 748 mmHg 78%
    Show more